#datint,netname,site,siteID,timestamp,IntT,BattV,AirT2,AirT,AirT_Avg,AirT_Max,AirT_Min,RH_Avg,RH_Max,RH_Min,EA_Avg,Td_Avg,Td_Max,Td_Min,WindS_Smp,WindS_Avg,WindD_Avg,WindD_SD,WindS_Max,ETo,ETr,SoilT4,SoilT8,SoilVWC8,SolarW_Avg,wetstate_Avg,wetT_Avg,Precip_accum,Precip_WPG,Precip_TB
15min,AgWx,beryljct,423,15JAN2018:00:00:00,30.1,12.73,29.1,29.2,28.9,29.2,28.7,85,85,85,0.462,24.9,25.2,24.7,3.42,3.7,320,8.3,5.1,-0.00007,-0.00008,35.4,38.3,21,0,0,35.4,11.84,0.00,0.00
15min,AgWx,beryljct,423,15JAN2018:00:15:00,29.7,12.84,26.8,26.9,28.8,29.5,26.9,85,86,85,0.425,24.9,25.5,23.2,3.88,3.8,324,9.2,4.8,-0.00007,-0.00008,35.4,38.3,21,0,0,35.5,11.84,0.00,0.00
15min,AgWx,beryljct,423,15JAN2018:00:30:00,29.1,12.83,26.3,26.4,26.6,26.9,26.1,85,86,85,0.413,22.7,23.1,22.2,2.85,3.7,332,9.8,4.9,-0.00007,-0.00007,35.3,38.3,20,0,0,35.7,11.84,0.00,0.00
15min,AgWx,beryljct,423,15JAN2018:00:45:00,28.6,12.83,27.5,27.3,26.7,27.4,26.2,85,85,84,0.426,22.8,23.4,22.3,3.003,3.2,328,7.5,4.6,-0.00008,-0.00009,35.1,38.2,21,0,0,35.6,11.84,0.00,0.00
15min,AgWx,beryljct,423,15JAN2018:01:00:00,28.2,12.83,28.1,27.8,27.3,27.8,26.9,85,85,85,0.436,23.3,23.8,22.9,2.938,3.0,323,4.8,3.7,-0.00008,-0.00009,35.1,38.2,21,0,0,35.6,11.84,0.00,0.00
15min,AgWx,beryljct,423,15JAN2018:01:15:00,27.9,12.69,28.0,28.0,27.7,28.0,27.3,85,85,85,0.440,23.7,24.0,23.4,2.148,2.1,305,11,2.9,-0.00011,-0.00014,35.0,38.2,21,0,0,35.7,11.84,0.00,0.00
15min,AgWx,beryljct,423,15JAN2018:01:30:00,27.7,12.83,28.4,28.5,28.7,29.3,28.0,85,85,84,0.451,24.7,25.2,23.9,1.776,1.5,312,6.0,2.2,-0.00014,-0.00018,34.8,38.1,21,0,0,35.5,11.84,0.00,0.00
15min,AgWx,beryljct,423,15JAN2018:01:45:00,27.6,12.82,30.6,30.6,29.8,31.0,28.3,85,85,83,0.480,25.7,26.9,24.4,0,1.0,319,3.3,2.0,-0.00016,-0.00023,34.7,38.1,21,0,0,35.8,11.84,0.00,0.00
15min,AgWx,beryljct,423,15JAN2018:02:00:00,27.5,12.81,27.2,27.5,28.3,30.5,26.7,84,86,82,0.431,24.2,26.0,22.9,2.587,1.4,185,13,2.7,-0.00014,-0.00019,34.6,38.0,21,0,0,35.5,11.84,0.00,0.00
15min,AgWx,beryljct,423,15JAN2018:02:15:00,27.2,12.79,27.3,27.4,27.1,27.6,26.7,85,85,85,0.427,23.1,23.6,22.8,2.236,2.4,190,0.8,2.9,-0.00010,-0.00012,34.5,38.0,21,0,0,35.7,11.84,0.00,0.00
15min,AgWx,beryljct,423,15JAN2018:02:30:00,27.0,12.66,27.2,27.2,27.4,27.7,26.9,85,85,84,0.427,23.4,23.6,22.9,2.302,2.1,184,6.3,2.8,-0.00011,-0.00014,34.4,37.9,21,0,0,35.8,11.84,0.00,0.00
15min,AgWx,beryljct,423,15JAN2018:02:45:00,26.7,12.78,26.7,26.6,26.5,27.2,26.0,85,85,85,0.414,22.6,23.3,22.1,3.003,2.5,175,4.2,3.0,-0.00010,-0.00012,34.3,37.9,21,0,0,35.4,11.84,0.00,0.00
15min,AgWx,beryljct,423,15JAN2018:03:00:00,26.5,12.78,26.5,26.6,27.2,27.7,26.6,85,85,84,0.416,23.3,23.6,22.7,3.047,2.6,178,5.6,4.2,-0.00010,-0.00011,34.3,37.9,21,0,0,35.5,11.84,0.00,0.00
15min,AgWx,beryljct,423,15JAN2018:03:15:00,26.3,12.77,24.7,24.7,25.5,26.5,24.7,85,85,85,0.387,21.7,22.7,20.9,2.916,2.6,171,8.7,3.7,-0.00009,-0.00011,34.2,37.8,20,0,0,35.7,11.84,0.00,0.00
15min,AgWx,beryljct,423,15JAN2018:03:30:00,25.8,12.77,24.5,24.6,24.7,24.9,24.4,85,85,85,0.384,20.8,21.0,20.6,1.688,1.9,158,6.4,2.9,-0.00011,-0.00014,34.1,37.8,20,0,0,35.5,11.84,0.00,0.00
15min,AgWx,beryljct,423,15JAN2018:03:45:00,25.5,12.64,24.8,24.8,24.7,24.9,24.4,85,85,85,0.387,20.9,21.1,20.6,2.236,2.3,174,6.7,3.4,-0.00010,-0.00012,33.9,37.7,21,0,0,35.4,11.84,0.00,0.00
15min,AgWx,beryljct,423,15JAN2018:04:00:00,25.5,12.76,25.8,25.9,25.3,26.1,24.7,85,85,85,0.403,21.4,22.1,20.8,0.658,1.8,203,13,3.0,-0.00011,-0.00014,33.9,37.7,21,0,0,35.9,11.84,0.00,0.00
15min,AgWx,beryljct,423,15JAN2018:04:15:00,25.7,12.76,25.9,26.0,25.8,26.3,25.5,85,85,85,0.405,21.9,22.3,21.5,1.578,0.7,163,51,1.8,-0.00017,-0.00024,33.8,37.6,21,0,0,35.7,11.84,0.00,0.00
15min,AgWx,beryljct,423,15JAN2018:04:30:00,25.9,12.74,25.4,25.5,25.8,26.4,25.3,85,85,85,0.397,21.9,22.4,21.4,3.376,2.5,344,5.8,3.5,-0.00009,-0.00011,33.8,37.6,21,0,0,35.5,11.84,0.00,0.00
15min,AgWx,beryljct,423,15JAN2018:04:45:00,26.2,12.73,25.8,25.9,25.7,26.0,25.3,85,85,85,0.403,21.7,22.0,21.4,2.258,3.2,343,6.5,4.0,-0.00008,-0.00009,33.6,37.6,21,0,0,35.7,11.84,0.00,0.00
15min,AgWx,beryljct,423,15JAN2018:05:00:00,26.4,12.59,26.1,26.1,25.9,26.1,25.7,85,85,85,0.406,22.0,22.1,21.7,2.718,2.0,329,6.8,3.7,-0.00011,-0.00014,33.6,37.5,21,0,0,35.5,11.84,0.00,0.00
15min,AgWx,beryljct,423,15JAN2018:05:15:00,26.5,12.72,26.8,26.9,26.5,27.0,26.1,84,85,84,0.418,22.5,22.9,22.1,0,1.2,10,33,2.6,-0.00014,-0.00019,33.6,37.5,21,0,0,35.6,11.84,0.00,0.00
15min,AgWx,beryljct,423,15JAN2018:05:30:00,26.5,12.72,25.9,26.1,26.5,26.9,26.1,85,85,84,0.406,22.5,22.8,22.1,0,0.2,15,4.2,1.5,-0.00020,-0.00031,33.5,37.4,21,0,0,35.7,11.84,0.00,0.00
15min,AgWx,beryljct,423,15JAN2018:05:45:00,26.3,12.71,25.5,25.6,25.7,26.1,25.4,85,85,85,0.400,21.8,22.2,21.5,0,0.0,24,0.0,0.2,-0.00021,-0.00034,33.5,37.4,21,0,0,35.9,11.84,0.00,0.00
15min,AgWx,beryljct,423,15JAN2018:06:00:00,26.1,12.71,25.8,25.9,25.7,26.0,25.5,85,85,85,0.403,21.8,22.0,21.5,1.556,0.3,125,7.9,1.7,-0.00019,-0.00028,33.4,37.4,21,0,0,35.7,11.84,0.00,0.00
15min,AgWx,beryljct,423,15JAN2018:06:15:00,25.8,12.57,24.8,24.9,25.3,26.0,24.9,85,85,85,0.388,21.5,22.0,21.0,1.951,2.4,149,12,3.4,-0.00010,-0.00012,33.3,37.3,21,0,0,35.4,11.84,0.00,0.00
15min,AgWx,beryljct,423,15JAN2018:06:30:00,25.5,12.69,24.5,24.6,24.6,25.0,24.3,85,85,85,0.383,20.8,21.1,20.5,2.214,2.6,184,11,3.7,-0.00009,-0.00011,33.2,37.2,21,0,0,35.3,11.84,0.00,0.00
15min,AgWx,beryljct,423,15JAN2018:06:45:00,25.1,12.69,25.0,25.0,25.0,25.4,24.6,85,85,85,0.390,21.2,21.5,20.7,1.666,2.3,187,6.2,3.2,-0.00010,-0.00012,33.3,37.3,21,0,0,35.6,11.84,0.00,0.00
15min,AgWx,beryljct,423,15JAN2018:07:00:00,24.9,12.68,26.2,26.2,25.6,26.5,24.7,85,85,85,0.409,21.7,22.6,20.9,1.929,2.0,217,14,2.8,-0.00011,-0.00014,33.2,37.2,21,0,0,35.6,11.84,0.00,0.00
15min,AgWx,beryljct,423,15JAN2018:07:15:00,24.7,12.68,23.7,24.0,25.1,26.3,24.0,86,86,85,0.377,21.3,22.4,20.4,1.25,1.3,295,36,1.8,0.00003,0.00006,33.1,37.2,21,0,0,35.5,11.84,0.00,0.00
15min,AgWx,beryljct,423,15JAN2018:07:30:00,24.3,12.66,24.5,24.7,23.9,24.8,23.3,86,86,85,0.386,20.3,21.0,19.7,3.025,2.1,308,4.4,3.3,0.00005,0.00008,33.1,37.1,21,0,0,35.6,11.84,0.00,0.00
15min,AgWx,beryljct,423,15JAN2018:07:45:00,24.2,12.66,25.0,24.9,25.1,26.0,24.4,85,85,85,0.389,21.2,22.0,20.6,2.433,2.5,313,3.5,2.9,0.00006,0.00010,33.0,37.0,21,1,0,35.7,11.84,0.00,0.00
15min,AgWx,beryljct,423,15JAN2018:08:00:00,24.1,12.68,23.2,23.7,23.7,24.8,22.9,86,86,85,0.372,20.0,21.0,19.3,2.959,2.8,342,5.5,3.6,0.00009,0.00013,33.0,37.0,21,10,0,35.7,11.84,0.00,0.00
15min,AgWx,beryljct,423,15JAN2018:08:15:00,24.4,12.7,24.5,24.8,24.3,24.8,23.6,85,86,85,0.387,20.6,21.0,19.9,3.836,3.3,342,9.6,4.2,0.00017,0.00022,32.8,37.0,21,32,0,35.6,11.84,0.00,0.00
15min,AgWx,beryljct,423,15JAN2018:08:30:00,24.8,12.75,25.2,25.3,25.1,25.5,24.6,85,85,85,0.394,21.3,21.7,20.8,2.061,3.0,326,3.2,4.1,0.00022,0.00028,32.8,36.9,21,49,0,35.7,11.84,0.00,0.00
15min,AgWx,beryljct,423,15JAN2018:08:45:00,25.4,12.74,26.5,26.9,26.0,26.9,25.4,85,85,84,0.420,22.1,22.9,21.5,2.762,2.7,347,6.3,3.5,0.00030,0.00035,32.7,36.9,21,74,0,35.9,11.84,0.00,0.00
15min,AgWx,beryljct,423,15JAN2018:09:00:00,26.8,13.38,28.6,28.8,27.8,29.0,26.8,84,85,84,0.450,23.7,24.7,22.7,4.823,3.4,342,4.8,4.8,0.00049,0.00057,32.7,36.8,20,155,0,35.9,11.84,0.00,0.00
15min,AgWx,beryljct,423,15JAN2018:09:15:00,28.8,13.54,30.5,30.4,29.6,30.5,28.6,84,84,83,0.477,25.3,26.1,24.4,4.998,4.2,331,6.2,5.3,0.00054,0.00064,32.7,36.8,21,154,0,35.5,11.84,0.00,0.00
15min,AgWx,beryljct,423,15JAN2018:09:30:00,30.5,13.64,31.9,32.3,31.6,32.3,30.6,84,84,83,0.519,27.2,28.0,26.2,5.459,4.9,319,8.1,6.3,0.00061,0.00073,32.6,36.8,21,167,0,36.5,11.84,0.00,0.00
15min,AgWx,beryljct,423,15JAN2018:09:45:00,31.9,13.65,32.4,32.7,32.6,32.9,32.2,84,84,84,0.529,28.3,28.7,28.0,3.551,4.4,323,10,5.6,0.00066,0.00077,32.6,36.8,21,174,0,37.7,11.84,0.00,0.00
15min,AgWx,beryljct,423,15JAN2018:10:00:00,32.9,13.67,32.4,32.4,32.9,33.2,32.4,83,84,82,0.511,28.4,28.8,27.6,4.56,4.9,329,13,7.4,0.00068,0.00080,32.5,36.7,21,176,0,38.2,11.84,0.00,0.00
15min,AgWx,beryljct,423,15JAN2018:10:15:00,33.8,13.78,32.8,32.9,32.7,33.2,32.3,84,84,82,0.528,28.3,28.9,27.5,4.516,4.7,340,9.3,7.4,0.00075,0.00088,32.5,36.7,21,199,0,38.7,11.84,0.00,0.00
15min,AgWx,beryljct,423,15JAN2018:10:30:00,34.8,13.96,33.3,33.5,33.2,33.6,32.9,84,84,83,0.546,28.8,29.3,28.3,5.656,5.5,335,9.6,7.7,0.00081,0.00095,32.5,36.6,21,221,0,39.2,11.84,0.00,0.00
15min,AgWx,beryljct,423,15JAN2018:10:45:00,36.0,14.57,34.1,34.1,33.8,34.2,33.4,83,84,80,0.538,29.1,29.7,28.4,3.354,5.2,338,11,6.7,0.00096,0.00112,32.4,36.6,21,267,0,39.9,11.84,0.00,0.00
15min,AgWx,beryljct,423,15JAN2018:11:00:00,38.2,14.74,35.2,35.2,34.7,35.2,34.1,80,82,78,0.545,29.0,29.7,28.2,2.302,3.1,351,16,5.3,0.00122,0.00137,32.4,36.6,21,326,0,42.4,11.84,0.00,0.00
15min,AgWx,beryljct,423,15JAN2018:11:15:00,41.6,14.67,37.5,36.9,36.0,36.9,35.1,76,79,74,0.553,29.1,30.1,28.6,0.066,2.2,359,16,4.5,0.00164,0.00182,32.5,36.5,21,439,0,45.2,11.84,0.00,0.00
15min,AgWx,beryljct,423,15JAN2018:11:30:00,45.8,14.61,39.0,38.3,37.9,39.0,36.9,71,75,67,0.531,29.3,30.3,28.1,3.223,1.8,9.1,22,6.0,0.00186,0.00205,32.5,36.5,21,471,0,49.4,11.84,0.00,0.00
15min,AgWx,beryljct,423,15JAN2018:11:45:00,48.0,14.55,39.9,39.1,38.8,39.3,38.3,67,71,65,0.540,28.9,30.2,27.9,4.998,5.2,64,20,7.8,0.00189,0.00221,32.5,36.5,21,489,0,46.2,11.84,0.00,0.00
15min,AgWx,beryljct,423,15JAN2018:12:00:00,49.7,14.52,40.3,39.9,39.6,40.2,39.1,65,67,63,0.535,28.8,29.6,28.0,3.354,3.7,52,19,5.7,0.00205,0.00234,32.6,36.4,21,515,0,47.6,11.84,0.00,0.00
15min,AgWx,beryljct,423,15JAN2018:12:15:00,51.8,14.46,42.6,41.3,40.8,41.5,39.8,63,65,61,0.538,29.0,30.2,28.4,1.688,2.6,19,23,5.2,0.00218,0.00245,32.7,36.4,21,532,0,49.6,11.84,0.00,0.00
15min,AgWx,beryljct,423,15JAN2018:12:30:00,54.3,14.43,43.8,42.8,42.4,43.1,41.2,60,62,57,0.548,29.4,30.7,28.7,2.148,1.8,45,36,4.9,0.00219,0.00244,32.9,36.4,21,514,0,52.8,11.84,0.00,0.00
15min,AgWx,beryljct,423,15JAN2018:12:45:00,55.7,14.01,44.7,44.0,43.5,44.0,42.8,58,60,56,0.569,29.6,30.6,28.7,7.673,3.9,54,22,7.8,0.00204,0.00240,33.5,36.3,21,462,0,51.0,11.84,0.00,0.00
15min,AgWx,beryljct,423,15JAN2018:13:00:00,55.9,14.03,45.1,44.7,44.4,45.1,43.7,56,59,54,0.574,29.7,30.9,28.7,6.752,5.2,56,19,7.9,0.00216,0.00260,34.1,36.3,21,486,0,50.3,11.84,0.00,0.00
15min,AgWx,beryljct,423,15JAN2018:13:15:00,56.4,13.97,46.9,45.8,44.9,45.9,44.3,55,56,53,0.561,29.6,30.6,28.9,0,3.1,53,29,7.1,0.00226,0.00261,34.8,36.3,21,507,0,52.0,11.84,0.00,0.00
15min,AgWx,beryljct,423,15JAN2018:13:30:00,57.9,13.95,47.2,47.0,46.6,47.2,46.0,52,55,51,0.585,30.2,31.9,29.0,2.148,3.3,26,32,8.1,0.00235,0.00273,35.5,36.3,20,510,0,55.0,11.84,0.00,0.00
15min,AgWx,beryljct,423,15JAN2018:13:45:00,59.1,13.94,49.0,48.0,47.4,48.7,46.7,51,54,47,0.539,30.2,31.6,28.9,6.379,4.9,42,29,10.0,0.00239,0.00289,36.1,36.3,21,504,0,53.8,11.84,0.00,0.00
15min,AgWx,beryljct,423,15JAN2018:14:00:00,59.5,13.93,49.5,48.9,48.5,49.3,47.7,49,52,47,0.552,30.2,32.1,29.0,8.2,7.3,49,16,12.1,0.00245,0.00311,36.9,36.3,21,489,0,52.9,11.84,0.00,0.00
15min,AgWx,beryljct,423,15JAN2018:14:15:00,59.5,13.9,49.9,49.7,49.3,50.3,48.4,49,53,46,0.592,30.9,32.9,29.3,6.029,7.7,45,13,11.9,0.00242,0.00311,37.5,36.3,21,475,0,53.5,11.84,0.00,0.00
15min,AgWx,beryljct,423,15JAN2018:14:30:00,59.7,13.91,49.8,49.6,50.0,50.8,49.4,48,50,46,0.573,30.8,32.2,29.5,10.98,8.4,39,13,13.6,0.00250,0.00324,38.1,36.3,21,475,0,53.9,11.84,0.00,0.00
15min,AgWx,beryljct,423,15JAN2018:14:45:00,59.5,13.92,50.8,50.2,50.1,51.0,49.5,47,50,45,0.561,30.8,32.5,29.4,9.58,9.3,52,10,12.7,0.00236,0.00315,38.8,36.3,20,438,0,54.0,11.84,0.00,0.00
15min,AgWx,beryljct,423,15JAN2018:15:00:00,59.2,13.91,50.9,50.5,50.4,50.8,49.8,46,48,44,0.595,30.5,31.7,29.4,6.708,9.6,60,12,12.9,0.00243,0.00326,39.3,36.3,21,442,0,54.6,11.83,0.00,0.00
15min,AgWx,beryljct,423,15JAN2018:15:15:00,58.9,13.94,51.0,50.8,50.7,51.1,50.3,46,49,44,0.580,30.8,32.1,29.4,10.46,9.2,53,12,12.9,0.00212,0.00291,39.8,36.3,21,372,0,53.7,11.84,0.00,0.00
15min,AgWx,beryljct,423,15JAN2018:15:30:00,58.4,13.94,50.7,50.7,50.7,51.0,50.4,45,48,43,0.567,30.3,31.9,29.0,8.62,10.4,58,13,13.1,0.00203,0.00289,40.2,36.4,21,336,0,52.8,11.83,0.00,0.00
15min,AgWx,beryljct,423,15JAN2018:15:45:00,57.9,13.95,50.7,50.7,50.6,50.9,50.2,45,48,44,0.571,30.3,31.6,29.3,9.78,10.1,62,9.4,13.2,0.00184,0.00267,40.7,36.5,21,294,0,52.4,11.83,0.00,0.00
15min,AgWx,beryljct,423,15JAN2018:16:00:00,57.2,13.94,49.9,50.1,50.3,50.8,49.9,45,47,43,0.567,30.0,31.0,28.4,11.18,10.6,63,9.0,13.0,0.00169,0.00253,40.8,36.6,21,256,0,51.9,11.83,0.00,0.00
15min,AgWx,beryljct,423,15JAN2018:16:15:00,56.4,13.97,49.7,49.8,50.1,50.4,49.7,47,49,45,0.562,30.5,31.6,29.7,12.96,10.5,65,8.1,14.1,0.00150,0.00230,41.0,36.7,21,218,0,51.5,11.83,0.00,0.00
15min,AgWx,beryljct,423,15JAN2018:16:30:00,55.4,13.98,49.0,49.2,49.6,50.1,49.0,48,50,46,0.588,30.8,31.7,29.8,10.85,10.5,65,9.2,13.1,0.00130,0.00207,41.2,36.8,21,180,0,50.8,11.83,0.00,0.00
15min,AgWx,beryljct,423,15JAN2018:16:45:00,54.2,14,47.9,47.9,48.6,49.1,47.9,50,51,48,0.577,30.7,31.3,30.0,8.37,10.6,62,6.2,14.4,0.00053,0.00063,41.3,36.9,21,135,0,49.3,11.83,0.00,0.00
15min,AgWx,beryljct,423,15JAN2018:17:00:00,52.8,13.92,46.4,46.7,47.4,48.1,46.5,52,54,50,0.583,30.7,31.1,30.2,3.968,7.7,68,7.7,10.9,0.00037,0.00046,41.4,37.0,21,76,0,47.6,11.83,0.00,0.00
15min,AgWx,beryljct,423,15JAN2018:17:15:00,51.0,13.36,44.9,44.9,45.8,46.6,44.9,55,56,53,0.569,30.5,31.0,30.1,3.244,4.7,61,7.9,7.3,0.00018,0.00025,41.3,37.2,21,42,0,45.3,11.83,0.00,0.00
15min,AgWx,beryljct,423,15JAN2018:17:30:00,49.0,13.19,44.2,44.4,44.6,44.9,44.1,56,57,55,0.554,29.9,30.4,29.5,3.793,3.2,39,13,5.3,0.00004,0.00008,41.1,37.3,21,18,0,43.1,11.83,0.00,0.00
15min,AgWx,beryljct,423,15JAN2018:17:45:00,47.0,13.11,43.0,43.5,43.5,44.4,43.2,57,58,56,0.548,29.5,29.7,29.2,2.872,2.5,45,10,5.1,-0.00003,-0.00002,40.9,37.4,21,5,0,41.2,11.83,0.00,0.00
15min,AgWx,beryljct,423,15JAN2018:18:00:00,45.2,13.09,41.7,41.9,42.9,43.6,41.9,58,59,57,0.535,29.1,29.4,28.8,1.688,1.6,356,28,2.8,-0.00012,-0.00015,40.7,37.5,21,1,0,39.6,11.83,0.00,0.00
15min,AgWx,beryljct,423,15JAN2018:18:15:00,43.3,13.07,40.1,40.5,41.4,42.1,40.5,60,62,59,0.527,28.7,29.0,28.3,2.411,1.2,34,30,3.3,-0.00016,-0.00021,40.5,37.7,21,0,0,37.7,11.83,0.00,0.00
15min,AgWx,beryljct,423,15JAN2018:18:30:00,41.8,13.04,39.0,39.2,39.9,40.6,39.1,64,65,62,0.530,28.5,29.0,28.3,3.639,3.4,80,8.3,5.8,-0.00002,0.00000,40.2,37.8,21,0,0,37.3,11.83,0.00,0.00
15min,AgWx,beryljct,423,15JAN2018:18:45:00,40.7,13.03,38.6,38.7,38.9,39.2,38.5,66,66,65,0.527,28.5,28.6,28.1,5.678,4.6,77,8.2,6.7,0.00003,0.00005,39.9,37.9,21,0,0,37.2,11.83,0.00,0.00
15min,AgWx,beryljct,423,15JAN2018:19:00:00,39.9,13.02,38.8,39.0,38.8,39.2,38.5,66,66,65,0.527,28.4,28.6,28.2,7.256,6.8,75,7.6,8.8,0.00009,0.00013,39.6,38.0,20,0,0,37.6,11.84,0.00,0.00
15min,AgWx,beryljct,423,15JAN2018:19:15:00,39.3,13.01,38.2,38.4,38.8,39.2,38.3,66,67,65,0.528,28.4,28.5,28.1,5.612,6.6,77,7.9,8.6,0.00009,0.00012,39.2,38.1,21,0,0,37.7,11.83,0.00,0.00
15min,AgWx,beryljct,423,15JAN2018:19:30:00,38.9,13,38.8,38.9,38.6,39.1,38.1,67,68,66,0.533,28.6,28.8,28.3,7.848,7.0,78,8.3,9.9,0.00009,0.00012,38.9,38.2,21,0,0,37.5,11.84,0.00,0.00
15min,AgWx,beryljct,423,15JAN2018:19:45:00,38.5,13,37.7,38.0,38.4,39.0,38.0,67,68,66,0.523,28.5,28.7,28.1,3.266,5.8,65,10,8.4,0.00006,0.00009,38.7,38.2,21,0,0,37.0,11.84,0.00,0.00
15min,AgWx,beryljct,423,15JAN2018:20:00:00,37.7,12.98,36.9,37.1,37.2,38.0,36.7,69,70,68,0.519,28.1,28.3,27.8,0.943,2.5,39,17,4.8,-0.00008,-0.00008,38.5,38.3,21,0,0,35.5,11.84,0.00,0.00
15min,AgWx,beryljct,423,15JAN2018:20:15:00,36.8,12.97,36.3,36.8,36.8,37.2,36.5,69,70,69,0.515,27.7,28.0,27.5,0.636,1.1,33,11,2.0,-0.00017,-0.00023,38.3,38.3,21,0,0,35.7,11.84,0.00,0.00
15min,AgWx,beryljct,423,15JAN2018:20:30:00,35.9,12.95,37.0,37.4,36.8,37.4,36.4,69,70,67,0.510,27.6,27.8,27.4,2.192,1.7,250,50,2.5,-0.00013,-0.00016,38.0,38.4,21,0,0,35.6,11.84,0.00,0.00
15min,AgWx,beryljct,423,15JAN2018:20:45:00,35.4,12.96,36.6,36.9,37.2,37.4,36.8,68,69,67,0.510,27.6,27.8,27.4,1.82,2.2,109,25,4.5,-0.00009,-0.00010,37.8,38.4,21,0,0,35.8,11.84,0.00,0.00
15min,AgWx,beryljct,423,15JAN2018:21:00:00,35.1,12.95,35.8,35.8,37.0,37.6,35.8,68,71,67,0.506,27.6,28.0,27.0,1.82,2.8,131,25,4.2,-0.00006,-0.00006,37.4,38.5,21,0,0,35.6,11.84,0.00,0.00
15min,AgWx,beryljct,423,15JAN2018:21:15:00,34.6,12.95,36.1,36.3,35.9,36.3,35.4,71,72,70,0.507,27.5,27.8,27.1,2.587,2.9,189,9.5,3.9,-0.00006,-0.00006,37.2,38.5,21,0,0,35.4,11.84,0.00,0.00
15min,AgWx,beryljct,423,15JAN2018:21:30:00,34.1,12.91,35.8,36.0,36.4,37.1,35.7,70,72,69,0.502,27.4,27.8,27.0,0,2.7,142,22,4.2,-0.00007,-0.00007,37.1,38.5,21,0,0,35.7,11.84,0.00,0.00
15min,AgWx,beryljct,423,15JAN2018:21:45:00,33.6,12.93,34.4,34.9,35.5,36.1,34.9,71,72,70,0.495,27.1,27.5,26.8,0,0.8,48,12,2.4,-0.00019,-0.00027,36.8,38.6,21,0,0,35.5,11.84,0.00,0.00
15min,AgWx,beryljct,423,15JAN2018:22:00:00,32.8,12.91,33.3,33.3,34.0,34.8,32.9,74,77,72,0.493,26.7,27.3,25.9,3.091,1.1,165,17,3.2,-0.00017,-0.00023,36.6,38.5,21,0,0,35.7,11.84,0.00,0.00
15min,AgWx,beryljct,423,15JAN2018:22:15:00,32.2,12.91,33.8,34.2,33.8,34.3,33.3,75,77,74,0.493,26.7,27.1,26.0,0,0.8,128,36,2.9,-0.00018,-0.00025,36.4,38.5,22,0,0,35.5,11.84,0.00,0.00
15min,AgWx,beryljct,423,15JAN2018:22:30:00,31.6,12.78,33.6,33.8,33.9,34.2,33.7,74,75,73,0.488,26.5,26.8,26.1,0.965,0.3,32,14,1.3,-0.00023,-0.00035,36.3,38.5,21,0,0,35.6,11.84,0.00,0.00
15min,AgWx,beryljct,423,15JAN2018:22:45:00,31.3,12.89,32.9,33.0,33.7,34.2,33.0,74,76,73,0.474,26.3,26.7,25.8,2.302,1.5,180,32,2.8,-0.00014,-0.00018,36.2,38.5,21,0,0,35.6,11.84,0.00,0.00
15min,AgWx,beryljct,423,15JAN2018:23:00:00,30.9,12.89,33.3,33.5,32.6,33.5,32.1,77,78,75,0.492,26.1,26.7,25.7,2.565,1.1,150,45,2.8,-0.00016,-0.00023,35.9,38.4,21,0,0,35.3,11.84,0.00,0.00
15min,AgWx,beryljct,423,15JAN2018:23:15:00,30.9,12.87,33.3,33.3,33.7,34.3,32.9,73,76,72,0.480,26.1,26.8,25.4,1.6,2.5,26,29,4.3,-0.00008,-0.00009,35.8,38.4,21,0,0,35.6,11.84,0.00,0.00
15min,AgWx,beryljct,423,15JAN2018:23:30:00,30.6,12.86,28.2,28.5,30.0,33.4,28.2,80,85,74,0.451,24.4,26.1,23.7,4.428,3.7,322,11,5.3,-0.00005,-0.00006,35.7,38.4,20,0,0,35.5,11.84,0.00,0.00
15min,AgWx,beryljct,423,15JAN2018:23:45:00,30.0,12.85,29.8,29.7,28.4,29.7,27.7,85,85,85,0.473,24.5,25.7,23.9,5.13,4.7,307,15,6.2,-0.00005,-0.00005,35.5,38.4,20,0,0,35.8,11.84,0.00,0.00
15min,AgWx,bigpiney,439,15JAN2018:00:00:00,17.9,12.81,20.2,19.6,20.3,21.3,19.2,76,78,74,0.284,13.8,14.7,13.0,4.428,5.0,327,12,7.7,-0.00001,-0.00001,30.6,32.0,22,0,0,0.0,.,0.00,0.00
15min,AgWx,bigpiney,439,15JAN2018:00:15:00,18.5,12.8,23.4,23.2,21.8,23.3,19.7,76,78,75,0.321,15.5,16.8,13.8,6.883,7.1,328,8.4,10.3,0.00001,0.00002,30.5,32.0,22,0,0,0.0,.,0.00,0.00
15min,AgWx,bigpiney,439,15JAN2018:00:30:00,19.5,12.79,24.7,23.9,23.6,24.0,22.8,76,77,75,0.336,17.2,17.8,16.2,10.41,8.9,333,7.1,12.0,0.00003,0.00004,30.5,32.0,22,0,0,0.0,.,0.00,0.00
15min,AgWx,bigpiney,439,15JAN2018:00:45:00,20.7,12.77,23.9,23.5,23.9,24.2,23.5,77,78,76,0.334,17.7,18.0,17.4,10.04,9.7,333,6.7,11.8,0.00004,0.00005,30.5,32.0,22,0,0,0.0,.,0.00,0.00
15min,AgWx,bigpiney,439,15JAN2018:01:00:00,21.5,12.78,22.4,22.3,22.9,23.5,22.3,78,78,77,0.320,16.9,17.6,16.5,6.401,8.5,324,7.8,11.1,0.00002,0.00003,30.5,32.0,21,0,0,0.0,.,0.00,0.00
15min,AgWx,bigpiney,439,15JAN2018:01:15:00,21.9,12.77,22.5,21.9,22.2,22.4,21.8,79,79,78,0.319,16.5,16.7,16.3,7.19,7.4,328,8.0,9.5,0.00001,0.00002,30.4,31.9,21,0,0,0.0,.,0.00,0.00
15min,AgWx,bigpiney,439,15JAN2018:01:30:00,22.0,12.75,22.8,22.7,22.0,22.8,21.1,78,80,76,0.319,16.4,17.0,15.7,6.73,6.6,330,10,8.2,-0.00000,0.00001,30.4,32.0,22,0,0,0.0,.,0.00,0.00
15min,AgWx,bigpiney,439,15JAN2018:01:45:00,21.9,12.75,17.8,17.8,19.6,22.7,17.8,79,82,76,0.276,14.2,16.4,13.0,5.327,5.2,280,19,6.8,-0.00002,-0.00001,30.4,32.0,21,0,0,0.0,.,0.00,0.00
15min,AgWx,bigpiney,439,15JAN2018:02:00:00,21.4,12.73,19.6,19.4,18.7,19.7,17.8,81,82,79,0.284,13.6,14.3,13.0,3.661,5.1,252,6.3,6.4,-0.00002,-0.00002,30.4,32.0,21,0,0,0.0,.,0.00,0.00
15min,AgWx,bigpiney,439,15JAN2018:02:15:00,20.8,12.74,23.5,21.7,19.1,21.7,17.7,79,82,78,0.315,13.8,16.2,12.3,6.949,4.7,275,24,7.7,-0.00003,-0.00003,30.3,32.0,21,0,0,0.0,.,0.00,0.00
15min,AgWx,bigpiney,439,15JAN2018:02:30:00,20.9,12.72,27.3,26.7,25.1,26.8,21.9,74,79,71,0.347,18.0,18.7,16.3,9.43,8.3,315,6.8,10.0,0.00004,0.00005,30.3,31.9,21,0,0,0.0,.,0.00,0.00
15min,AgWx,bigpiney,439,15JAN2018:02:45:00,21.9,12.72,25.4,25.2,26.9,27.7,25.2,70,72,68,0.332,18.4,19.0,17.4,5.919,8.3,317,8.4,11.0,0.00006,0.00008,30.3,32.0,21,0,0,0.0,.,0.00,0.00
15min,AgWx,bigpiney,439,15JAN2018:03:00:00,22.6,12.7,28.1,27.2,25.6,27.2,24.9,72,73,71,0.357,18.0,19.2,17.3,8,6.1,320,7.0,8.0,0.00002,0.00003,30.3,32.0,21,0,0,0.0,.,0.00,0.00
15min,AgWx,bigpiney,439,15JAN2018:03:15:00,23.4,12.7,30.0,29.7,28.8,29.8,27.3,68,71,65,0.364,19.5,19.8,19.1,9.49,9.4,305,6.9,11.3,0.00008,0.00011,30.2,31.9,21,0,0,0.0,.,0.00,0.00
15min,AgWx,bigpiney,439,15JAN2018:03:30:00,24.6,12.68,30.7,29.7,29.6,29.8,29.4,65,66,65,0.361,19.4,19.6,19.3,10.63,9.4,305,7.1,10.8,0.00010,0.00013,30.2,32.0,21,0,0,0.0,.,0.00,0.00
15min,AgWx,bigpiney,439,15JAN2018:03:45:00,25.4,12.69,25.0,25.3,28.4,29.9,25.3,66,70,65,0.324,18.6,19.4,16.8,7.103,8.1,315,10,10.4,0.00008,0.00010,30.2,31.9,21,0,0,0.0,.,0.00,0.00
15min,AgWx,bigpiney,439,15JAN2018:04:00:00,25.5,12.68,23.8,23.4,24.3,25.4,23.4,72,74,70,0.318,16.7,17.2,16.3,6.445,7.0,345,15,12.0,0.00003,0.00004,30.2,32.0,21,0,0,0.0,.,0.00,0.00
15min,AgWx,bigpiney,439,15JAN2018:04:15:00,25.0,12.68,21.6,21.1,22.5,23.4,21.1,76,78,74,0.303,16.0,16.5,15.1,6.73,6.6,329,11,9.3,0.00001,0.00002,30.2,31.9,21,0,0,0.0,.,0.00,0.00
15min,AgWx,bigpiney,439,15JAN2018:04:30:00,24.1,12.67,21.9,20.8,20.3,21.3,19.3,78,80,77,0.305,14.6,15.5,13.8,7.125,6.2,304,8.4,8.8,-0.00001,0.00000,30.2,32.0,21,0,0,0.0,.,0.00,0.00
15min,AgWx,bigpiney,439,15JAN2018:04:45:00,23.2,12.66,20.6,20.4,20.7,21.2,20.3,78,79,77,0.293,14.8,15.5,14.5,5.13,6.0,310,6.7,8.6,-0.00001,0.00000,30.1,32.0,21,0,0,0.0,.,0.00,0.00
15min,AgWx,bigpiney,439,15JAN2018:05:00:00,22.5,12.66,21.4,21.2,20.5,21.3,20.0,78,78,77,0.303,14.8,15.4,14.3,5.568,5.9,303,5.8,7.1,-0.00001,-0.00000,30.2,32.0,21,0,0,0.0,.,0.00,0.00
15min,AgWx,bigpiney,439,15JAN2018:05:15:00,22.1,12.66,21.8,21.0,21.0,21.3,20.8,77,78,77,0.299,15.0,15.3,14.8,7.453,6.6,299,6.4,8.2,0.00000,0.00001,30.1,31.9,21,0,0,0.0,.,0.00,0.00
15min,AgWx,bigpiney,439,15JAN2018:05:30:00,21.7,12.65,19.9,19.9,20.8,21.1,19.9,77,78,77,0.286,14.7,15.1,13.9,6.116,6.6,295,4.7,8.1,0.00000,0.00001,30.1,32.0,21,0,0,0.0,.,0.00,0.00
15min,AgWx,bigpiney,439,15JAN2018:05:45:00,21.4,12.64,20.6,20.0,19.9,20.1,19.7,78,78,78,0.291,14.2,14.4,13.8,6.226,6.3,293,4.6,7.1,-0.00000,0.00000,30.1,32.0,21,0,0,0.0,.,0.00,0.00
15min,AgWx,bigpiney,439,15JAN2018:06:00:00,21.2,12.64,22.1,21.4,20.5,21.4,20.0,78,78,77,0.305,14.7,15.4,14.3,6.555,6.9,291,3.9,8.2,0.00000,0.00001,30.1,31.9,21,0,0,0.0,.,0.00,0.00
15min,AgWx,bigpiney,439,15JAN2018:06:15:00,21.1,12.63,25.4,23.7,22.3,23.7,21.4,76,77,76,0.329,16.0,17.2,15.4,7.212,4.8,297,6.1,7.2,-0.00002,-0.00001,30.0,31.9,21,0,0,0.0,.,0.00,0.00
15min,AgWx,bigpiney,439,15JAN2018:06:30:00,21.3,12.64,26.5,25.8,25.7,26.4,23.8,72,76,70,0.334,17.9,18.4,17.2,7.015,6.3,296,5.8,7.9,0.00002,0.00004,30.0,31.9,21,0,0,0.0,.,0.00,0.00
15min,AgWx,bigpiney,439,15JAN2018:06:45:00,21.9,12.63,23.5,23.4,25.1,25.9,23.4,71,73,70,0.313,17.1,17.7,16.1,5.963,6.1,304,8.8,7.1,0.00002,0.00003,30.0,31.9,21,0,0,0.0,.,0.00,0.00
15min,AgWx,bigpiney,439,15JAN2018:07:00:00,22.1,12.62,25.3,24.3,22.8,24.3,22.3,75,75,73,0.328,16.0,17.2,15.5,8.24,6.5,311,7.0,8.7,0.00001,0.00002,30.0,31.9,21,0,0,0.0,.,0.00,0.00
15min,AgWx,bigpiney,439,15JAN2018:07:15:00,22.1,12.63,21.4,21.7,23.6,24.9,21.7,73,74,72,0.292,16.2,17.4,14.5,4.034,5.2,316,12,7.7,-0.00000,0.00001,30.0,31.9,21,0,0,0.0,.,0.00,0.00
15min,AgWx,bigpiney,439,15JAN2018:07:30:00,21.9,12.62,14.6,17.2,22.8,24.3,17.2,73,75,66,0.226,15.4,16.5,8.7,5.437,4.7,309,49,8.1,-0.00001,-0.00000,30.0,31.9,21,0,0,0.0,.,0.00,0.00
15min,AgWx,bigpiney,439,15JAN2018:07:45:00,21.5,12.64,18.0,20.4,22.7,25.6,16.9,73,83,66,0.259,15.2,17.0,8.7,5.239,4.1,58,70,10.4,-0.00002,-0.00001,30.0,31.9,21,2,0,0.0,.,0.00,0.00